Find Starlink 30405

NORAD ID: 57851 Int'l Des: 2023-141 Owner: SPXS Country: US Constellation: starlink operational
LEOCIRCULAR

当前视图

正在加载3D地球...

About Starlink 30405

Starlink 30405 (NORAD 57851) is a starlink constellation satellite (v2 mini) launched Sep 12, 2023 by SPXS of US. It operates in LEO, CIRCULAR orbit with a mass of 730.00 kg.

即将过境

Passes for default location (London). Set your location on the main map for personalized predictions.

高度历史

Loading altitude history...

两行轨道根数

1 57851U 23141M 26264.92971107 .00000748 00000-0 35861-4 0 9999
2 57851 53.1600 91.1083 0001206 88.6420 271.4720 15.31704721170396
Epoch: Sep 21, 2026 • Age: 27 hours

当前状态

高度 473.0 km
远地点 / 近地点 N/A
速度 7.63 km/s
星下点 37.00°N, 152.84°W
发射日期 Sep 12, 2023
运行时间 3 years
类型 internet

技术详情

分类 Payload
质量 730.00 kg
干质量 700.00 kg
长度 0.30 m
跨度 29.00 m
形状 ? Box + pan
制造商 SPXS
平台类型 Starlink V2M
阶段状态 In Orbit
所有者/国家 SPXS/US

Most Searched